When you browse on this site, cookies collect data to enhance your experience and personalize the content and advertising you see.
Visit our Privacy Policy to learn more. By continuing to use the site, you agree to this use of cookies and data.
  • In Schweiz
  • Länderverzeichnis
  • Für 7 Tage
  • Wassertemperatur
  • Wetterkarte
  • Widgets
  • user-avatar
    Anmelden

    Stündliche Wetter Makeevskaya

    Heute, 25 August, Sonntag

    Zeit Temperatur Niederschläge Wind Luftdruck Luftfeuchtigkeit
    00:00 +14°C° 0 mm 1 m/S 752 mmHg 95%
    01:00 +14°C° 0 mm 1 m/S 753 mmHg 95%
    02:00 +14°C° 0 mm 1 m/S 753 mmHg 95%
    03:00 +14°C° 0 mm 1 m/S 753 mmHg 95%
    04:00 +13°C° 0 mm 1 m/S 753 mmHg 95%
    05:00 +13°C° 0 mm 1 m/S 753 mmHg 95%
    06:00 +15°C° 0 mm 1 m/S 754 mmHg 89%
    07:00 +16°C° 0 mm 1 m/S 754 mmHg 83%
    08:00 +19°C° 0 mm 1 m/S 755 mmHg 76%
    09:00 +19°C° 0 mm 2 m/S 755 mmHg 69%
    10:00 +20°C° 0 mm 2 m/S 754 mmHg 63%
    11:00 +21°C° 0 mm 2 m/S 754 mmHg 57%
    12:00 +23°C° 0 mm 2 m/S 754 mmHg 56%
    13:00 +23°C° 0 mm 2 m/S 754 mmHg 54%
    14:00 +23°C° 0 mm 2 m/S 754 mmHg 52%
    15:00 +23°C° 0 mm 2 m/S 754 mmHg 57%
    16:00 +23°C° 0 mm 1 m/S 754 mmHg 61%
    17:00 +22°C° 0 mm 1 m/S 754 mmHg 66%
    18:00 +20°C° 0 mm 1 m/S 754 mmHg 71%
    19:00 +18°C° 0 mm 1 m/S 755 mmHg 76%
    20:00 +15°C° 0 mm 1 m/S 755 mmHg 80%
    21:00 +14°C° 0 mm 1 m/S 755 mmHg 84%
    22:00 +14°C° 0 mm 1 m/S 755 mmHg 87%
    23:00 +13°C° 0 mm 1 m/S 755 mmHg 90%

    Morgen, 26 August, Montag

    Zeit Temperatur Niederschläge Wind Luftdruck Luftfeuchtigkeit
    00:00 +13°C° 0 mm 1 m/S 755 mmHg 91%
    01:00 +13°C° 0 mm 1 m/S 755 mmHg 92%
    02:00 +12°C° 0 mm 1 m/S 756 mmHg 92%
    03:00 +12°C° 0 mm 1 m/S 755 mmHg 93%
    04:00 +11°C° 0 mm 0 m/S 755 mmHg 93%
    05:00 +10°C° 0 mm 0 m/S 755 mmHg 94%
    06:00 +13°C° 0 mm 0 m/S 755 mmHg 87%
    07:00 +15°C° 0 mm 0 m/S 755 mmHg 81%
    08:00 +17°C° 0 mm 0 m/S 755 mmHg 74%
    09:00 +20°C° 0 mm 1 m/S 755 mmHg 69%
    10:00 +21°C° 0 mm 1 m/S 755 mmHg 63%
    11:00 +23°C° 0 mm 1 m/S 755 mmHg 58%
    12:00 +23°C° 0 mm 2 m/S 754 mmHg 57%
    13:00 +24°C° 0 mm 2 m/S 754 mmHg 56%
    14:00 +24°C° 0 mm 2 m/S 754 mmHg 55%
    15:00 +23°C° 0 mm 2 m/S 753 mmHg 60%
    16:00 +23°C° 0 mm 2 m/S 753 mmHg 65%
    17:00 +23°C° 0 mm 2 m/S 753 mmHg 70%
    18:00 +20°C° 0 mm 2 m/S 752 mmHg 75%
    19:00 +18°C° 0 mm 2 m/S 752 mmHg 81%
    20:00 +16°C° 0 mm 2 m/S 752 mmHg 86%
    21:00 +16°C° 0 mm 2 m/S 752 mmHg 88%
    22:00 +16°C° 0 mm 2 m/S 752 mmHg 89%
    23:00 +16°C° 0 mm 2 m/S 752 mmHg 90%

    übermorgen, 27 August, Dienstag

    Zeit Temperatur Niederschläge Wind Luftdruck Luftfeuchtigkeit
    00:00 +15°C° 0 mm 2 m/S 751 mmHg 91%
    01:00 +15°C° 0 mm 2 m/S 751 mmHg 92%
    02:00 +15°C° 0 mm 2 m/S 751 mmHg 93%
    03:00 +15°C° 0 mm 2 m/S 751 mmHg 94%
    04:00 +15°C° 0 mm 2 m/S 751 mmHg 95%
    05:00 +15°C° 0 mm 2 m/S 751 mmHg 97%
    06:00 +16°C° 0 mm 2 m/S 751 mmHg 92%
    07:00 +17°C° 0 mm 3 m/S 751 mmHg 88%
    08:00 +19°C° 0 mm 3 m/S 751 mmHg 83%
    09:00 +20°C° 0 mm 3 m/S 751 mmHg 77%
    10:00 +21°C° 0 mm 3 m/S 751 mmHg 71%
    11:00 +22°C° 0 mm 4 m/S 751 mmHg 65%
    12:00 +22°C° 0 mm 4 m/S 751 mmHg 63%
    13:00 +23°C° 0 mm 4 m/S 751 mmHg 60%
    14:00 +23°C° 0 mm 4 m/S 751 mmHg 57%
    15:00 +23°C° 0 mm 4 m/S 751 mmHg 60%
    16:00 +22°C° 0 mm 3 m/S 751 mmHg 63%
    17:00 +21°C° 0 mm 3 m/S 750 mmHg 66%
    18:00 +19°C° 0 mm 2 m/S 751 mmHg 70%
    19:00 +17°C° 0 mm 2 m/S 751 mmHg 74%
    20:00 +16°C° 0 mm 2 m/S 751 mmHg 78%
    21:00 +15°C° 0 mm 2 m/S 751 mmHg 80%
    22:00 +14°C° 0 mm 2 m/S 751 mmHg 82%
    23:00 +13°C° 0 mm 2 m/S 752 mmHg 84%

    28 August, Mittwoch

    Zeit Temperatur Niederschläge Wind Luftdruck Luftfeuchtigkeit
    00:00 +13°C° 0 mm 2 m/S 752 mmHg 87%
    01:00 +12°C° 0 mm 2 m/S 752 mmHg 90%
    02:00 +12°C° 0 mm 2 m/S 752 mmHg 93%
    03:00 +12°C° 0 mm 2 m/S 752 mmHg 94%
    04:00 +10°C° 0 mm 2 m/S 753 mmHg 96%
    05:00 +10°C° 0 mm 2 m/S 753 mmHg 97%
    06:00 +12°C° 0 mm 2 m/S 753 mmHg 90%
    07:00 +12°C° 0 mm 3 m/S 753 mmHg 82%
    08:00 +13°C° 0 mm 3 m/S 753 mmHg 74%
    09:00 +14°C° 0 mm 3 m/S 754 mmHg 68%
    10:00 +16°C° 0 mm 3 m/S 754 mmHg 62%
    11:00 +17°C° 0 mm 3 m/S 754 mmHg 55%
    12:00 +18°C° 0 mm 3 m/S 754 mmHg 52%
    13:00 +18°C° 0 mm 3 m/S 753 mmHg 49%
    14:00 +19°C° 0 mm 3 m/S 753 mmHg 46%
    15:00 +18°C° 0 mm 3 m/S 753 mmHg 50%
    16:00 +17°C° 0 mm 2 m/S 753 mmHg 55%
    17:00 +17°C° 0 mm 2 m/S 753 mmHg 59%
    18:00 +15°C° 0 mm 2 m/S 753 mmHg 63%
    19:00 +13°C° 0 mm 2 m/S 754 mmHg 67%
    20:00 +10°C° 0 mm 2 m/S 754 mmHg 71%
    21:00 +9°C° 0 mm 2 m/S 754 mmHg 73%
    22:00 +9°C° 0 mm 2 m/S 754 mmHg 76%
    23:00 +8°C° 0 mm 2 m/S 754 mmHg 78%

    29 August, Donnerstag

    Zeit Temperatur Niederschläge Wind Luftdruck Luftfeuchtigkeit
    00:00 +7°C° 0 mm 2 m/S 755 mmHg 80%
    01:00 +7°C° 0 mm 2 m/S 755 mmHg 82%
    02:00 +6°C° 0 mm 2 m/S 755 mmHg 83%
    03:00 +7°C° 0 mm 1 m/S 755 mmHg 85%
    04:00 +7°C° 0 mm 1 m/S 755 mmHg 86%
    05:00 +6°C° 0 mm 1 m/S 755 mmHg 88%
    06:00 +8°C° 0 mm 1 m/S 755 mmHg 80%
    07:00 +10°C° 0 mm 1 m/S 755 mmHg 73%
    08:00 +12°C° 0 mm 1 m/S 756 mmHg 66%
    09:00 +14°C° 0 mm 2 m/S 755 mmHg 60%
    10:00 +15°C° 0 mm 2 m/S 755 mmHg 54%
    11:00 +17°C° 0 mm 2 m/S 755 mmHg 48%
    12:00 +18°C° 0 mm 2 m/S 755 mmHg 48%
    13:00 +18°C° 0 mm 2 m/S 755 mmHg 47%
    14:00 +19°C° 0 mm 2 m/S 754 mmHg 46%
    15:00 +20°C° 0 mm 1 m/S 754 mmHg 52%
    16:00 +19°C° 0 mm 1 m/S 754 mmHg 58%
    17:00 +19°C° 0 mm 1 m/S 754 mmHg 63%
    18:00 +16°C° 0 mm 1 m/S 754 mmHg 68%
    19:00 +14°C° 0 mm 1 m/S 754 mmHg 72%
    20:00 +12°C° 0 mm 1 m/S 754 mmHg 77%
    21:00 +11°C° 0 mm 1 m/S 754 mmHg 79%
    22:00 +11°C° 0 mm 1 m/S 754 mmHg 81%
    23:00 +11°C° 0 mm 1 m/S 754 mmHg 83%

    30 August, Freitag

    Zeit Temperatur Niederschläge Wind Luftdruck Luftfeuchtigkeit
    00:00 +10°C° 0 mm 1 m/S 754 mmHg 84%
    01:00 +10°C° 0 mm 1 m/S 753 mmHg 85%
    02:00 +10°C° 0 mm 1 m/S 753 mmHg 86%
    03:00 +10°C° 0 mm 1 m/S 753 mmHg 87%
    04:00 +9°C° 0 mm 1 m/S 753 mmHg 87%
    05:00 +9°C° 0 mm 1 m/S 753 mmHg 88%
    06:00 +11°C° 0 mm 1 m/S 753 mmHg 81%
    07:00 +13°C° 0 mm 1 m/S 753 mmHg 74%
    08:00 +14°C° 0 mm 0 m/S 753 mmHg 66%
    09:00 +18°C° 0 mm 1 m/S 754 mmHg 62%
    10:00 +20°C° 0 mm 1 m/S 754 mmHg 57%
    11:00 +21°C° 0 mm 1 m/S 754 mmHg 53%
    12:00 +22°C° 0 mm 1 m/S 753 mmHg 52%
    13:00 +22°C° 0 mm 1 m/S 753 mmHg 52%
    14:00 +22°C° 0 mm 1 m/S 753 mmHg 51%
    15:00 +22°C° 0 mm 1 m/S 753 mmHg 57%
    16:00 +21°C° 0 mm 1 m/S 753 mmHg 63%
    17:00 +20°C° 0 mm 1 m/S 753 mmHg 69%
    18:00 +19°C° 0 mm 1 m/S 753 mmHg 73%
    19:00 +15°C° 0 mm 0 m/S 753 mmHg 78%
    20:00 +13°C° 0 mm 0 m/S 753 mmHg 83%
    21:00 +13°C° 0 mm 0 m/S 754 mmHg 84%
    22:00 +13°C° 0 mm 0 m/S 754 mmHg 84%
    23:00 +12°C° 0 mm 0 m/S 754 mmHg 85%
    Mehr zeigen